Wetterdaten: Woche 06.11.17 - 12.11.17 (KW45)
Datum Zeit Temp. A. Feuchte I. Feuchte A. Luftdruck Regen Wind Richtung Sonnenschein UV Solar Taupunkt Windchill Windben
06.11.2017 00:00 4,7 C 61 % 95 % 1013,9 hPa 0,0 l/m 0,3 km/h (0 Bft) NW 0,00 h 0,0 UV-I 0 W/m 4,0 C 4,7 C 1,3 km/h (1 Bft)
06.11.2017 01:00 4,6 C 62 % 95 % 1014,5 hPa 0,0 l/m 0,0 km/h (0 Bft) N 0,00 h 0,0 UV-I 0 W/m 3,9 C 4,6 C 0,0 km/h (0 Bft)
06.11.2017 02:00 4,7 C 63 % 95 % 1015,0 hPa 0,2 l/m 0,4 km/h (0 Bft) W-NW 0,00 h 0,0 UV-I 0 W/m 4,0 C 4,7 C 1,2 km/h (1 Bft)
06.11.2017 03:00 4,7 C 63 % 95 % 1015,3 hPa 0,0 l/m 4,1 km/h (1 Bft) W-NW 0,00 h 0,0 UV-I 0 W/m 4,0 C 4,4 C 8,3 km/h (2 Bft)
06.11.2017 04:00 4,6 C 63 % 95 % 1016,0 hPa 0,4 l/m 1,1 km/h (0 Bft) NW 0,00 h 0,0 UV-I 0 W/m 3,9 C 4,6 C 2,9 km/h (1 Bft)
06.11.2017 05:00 4,6 C 63 % 95 % 1016,8 hPa 0,2 l/m 1,3 km/h (1 Bft) NW 0,00 h 0,0 UV-I 0 W/m 3,9 C 4,6 C 3,2 km/h (1 Bft)
06.11.2017 06:00 4,4 C 63 % 96 % 1017,3 hPa 0,2 l/m 0,6 km/h (0 Bft) N-NW 0,00 h 0,0 UV-I 0 W/m 3,8 C 4,4 C 2,6 km/h (1 Bft)
06.11.2017 07:00 4,2 C 61 % 95 % 1018,0 hPa 0,0 l/m 0,5 km/h (0 Bft) NW 0,00 h 0,0 UV-I 14 W/m 3,5 C 4,2 C 1,6 km/h (1 Bft)
06.11.2017 08:00 4,5 C 60 % 96 % 1018,7 hPa 0,0 l/m 3,9 km/h (1 Bft) N-NW 0,00 h 0,0 UV-I 30 W/m 3,8 C 4,3 C 7,5 km/h (2 Bft)
06.11.2017 09:00 4,8 C 59 % 95 % 1019,4 hPa 0,0 l/m 4,0 km/h (1 Bft) N-NW 0,00 h 0,0 UV-I 46 W/m 4,1 C 4,6 C 7,5 km/h (2 Bft)
06.11.2017 10:00 4,9 C 58 % 94 % 1020,0 hPa 0,0 l/m 5,6 km/h (1 Bft) N-NW 0,00 h 0,5 UV-I 44 W/m 4,0 C 4,2 C 9,3 km/h (2 Bft)
06.11.2017 11:00 5,3 C 58 % 93 % 1020,6 hPa 0,0 l/m 5,3 km/h (1 Bft) N-NW 0,00 h 0,6 UV-I 78 W/m 4,3 C 4,7 C 9,5 km/h (2 Bft)
06.11.2017 12:00 5,6 C 58 % 92 % 1021,0 hPa 0,0 l/m 6,1 km/h (2 Bft) N-NW 0,00 h 0,5 UV-I 61 W/m 4,4 C 4,8 C 9,9 km/h (2 Bft)
06.11.2017 13:00 5,8 C 59 % 91 % 1021,2 hPa 0,0 l/m 4,9 km/h (1 Bft) N-NW 0,00 h 0,5 UV-I 56 W/m 4,4 C 5,6 C 8,3 km/h (2 Bft)
06.11.2017 14:00 5,7 C 59 % 90 % 1021,4 hPa 0,0 l/m 5,2 km/h (1 Bft) N-NW 0,00 h 0,0 UV-I 48 W/m 4,2 C 5,1 C 8,8 km/h (2 Bft)
06.11.2017 15:00 5,7 C 60 % 90 % 1021,9 hPa 0,0 l/m 5,5 km/h (1 Bft) N-NW 0,00 h 0,0 UV-I 26 W/m 4,1 C 5,0 C 8,8 km/h (2 Bft)
06.11.2017 16:00 5,3 C 60 % 91 % 1022,4 hPa 0,0 l/m 7,1 km/h (2 Bft) N-NW 0,00 h 0,0 UV-I 9 W/m 4,0 C 4,4 C 8,6 km/h (2 Bft)
06.11.2017 17:00 5,0 C 60 % 91 % 1023,0 hPa 0,0 l/m 8,8 km/h (2 Bft) N 0,00 h 0,0 UV-I 0 W/m 3,7 C 2,9 C 10,3 km/h (2 Bft)
06.11.2017 18:00 4,9 C 62 % 91 % 1023,5 hPa 0,0 l/m 5,2 km/h (1 Bft) N 0,00 h 0,0 UV-I 0 W/m 3,6 C 4,3 C 8,5 km/h (2 Bft)
06.11.2017 19:00 4,9 C 63 % 91 % 1023,6 hPa 0,0 l/m 3,8 km/h (1 Bft) N 0,00 h 0,0 UV-I 0 W/m 3,5 C 4,6 C 5,3 km/h (1 Bft)
06.11.2017 20:00 4,8 C 62 % 91 % 1023,8 hPa 0,0 l/m 5,5 km/h (1 Bft) N 0,00 h 0,0 UV-I 0 W/m 3,5 C 4,1 C 6,8 km/h (2 Bft)
06.11.2017 21:00 4,9 C 63 % 91 % 1024,1 hPa 0,0 l/m 5,0 km/h (1 Bft) N 0,00 h 0,0 UV-I 0 W/m 3,5 C 4,6 C 9,0 km/h (2 Bft)
06.11.2017 22:00 4,9 C 63 % 92 % 1024,1 hPa 0,0 l/m 4,6 km/h (1 Bft) N-NO 0,00 h 0,0 UV-I 0 W/m 3,7 C 4,7 C 7,9 km/h (2 Bft)
06.11.2017 23:00 4,9 C 63 % 92 % 1024,0 hPa 0,0 l/m 4,3 km/h (1 Bft) N 0,00 h 0,0 UV-I 0 W/m 3,7 C 4,7 C 6,8 km/h (2 Bft)
07.11.2017 00:00 5,0 C 64 % 92 % 1023,9 hPa 0,0 l/m 5,1 km/h (1 Bft) N-NO 0,00 h 0,0 UV-I 0 W/m 3,8 C 4,6 C 9,2 km/h (2 Bft)
07.11.2017 01:00 5,2 C 64 % 91 % 1023,8 hPa 0,0 l/m 4,7 km/h (1 Bft) N-NO 0,00 h 0,0 UV-I 0 W/m 3,8 C 4,9 C 9,3 km/h (2 Bft)
07.11.2017 02:00 5,2 C 65 % 91 % 1023,4 hPa 0,0 l/m 3,4 km/h (1 Bft) N-NO 0,00 h 0,0 UV-I 0 W/m 3,8 C 5,0 C 6,6 km/h (2 Bft)
07.11.2017 03:00 5,2 C 65 % 91 % 1023,0 hPa 0,0 l/m 3,5 km/h (1 Bft) NO 0,00 h 0,0 UV-I 0 W/m 3,9 C 5,1 C 7,6 km/h (2 Bft)
07.11.2017 04:00 5,5 C 64 % 91 % 1022,8 hPa 0,0 l/m 1,3 km/h (1 Bft) N-NO 0,00 h 0,0 UV-I 0 W/m 4,2 C 5,5 C 3,4 km/h (1 Bft)
07.11.2017 05:00 5,7 C 65 % 91 % 1022,6 hPa 0,0 l/m 2,5 km/h (1 Bft) O-NO 0,00 h 0,0 UV-I 0 W/m 4,3 C 5,6 C 5,4 km/h (1 Bft)
07.11.2017 06:00 5,8 C 64 % 92 % 1022,3 hPa 0,0 l/m 4,9 km/h (1 Bft) NO 0,00 h 0,0 UV-I 0 W/m 4,5 C 5,1 C 8,3 km/h (2 Bft)
07.11.2017 07:00 5,9 C 63 % 92 % 1022,1 hPa 0,0 l/m 8,1 km/h (2 Bft) O-NO 0,00 h 0,0 UV-I 8 W/m 4,7 C 4,2 C 14,7 km/h (3 Bft)
07.11.2017 08:00 6,1 C 63 % 92 % 1022,2 hPa 0,0 l/m 5,9 km/h (2 Bft) O-NO 0,00 h 0,0 UV-I 11 W/m 4,9 C 5,3 C 11,2 km/h (2 Bft)
07.11.2017 09:00 6,2 C 62 % 92 % 1021,9 hPa 0,0 l/m 6,0 km/h (2 Bft) O-NO 0,00 h 0,0 UV-I 23 W/m 5,0 C 5,5 C 12,0 km/h (2 Bft)
07.11.2017 10:00 6,3 C 62 % 92 % 1021,5 hPa 0,0 l/m 5,7 km/h (1 Bft) O-NO 0,00 h 0,5 UV-I 38 W/m 5,1 C 5,6 C 12,6 km/h (3 Bft)
07.11.2017 11:00 6,8 C 61 % 89 % 1020,9 hPa 0,0 l/m 5,4 km/h (1 Bft) O 0,00 h 0,5 UV-I 51 W/m 5,0 C 5,9 C 11,6 km/h (2 Bft)
07.11.2017 12:00 6,8 C 61 % 87 % 1020,1 hPa 0,0 l/m 9,3 km/h (2 Bft) O-NO 0,00 h 0,6 UV-I 67 W/m 4,8 C 4,4 C 17,1 km/h (3 Bft)
07.11.2017 13:00 7,2 C 61 % 86 % 1019,3 hPa 0,0 l/m 5,2 km/h (1 Bft) O-NO 0,00 h 0,6 UV-I 62 W/m 5,0 C 6,5 C 11,3 km/h (2 Bft)
07.11.2017 14:00 7,4 C 61 % 85 % 1018,8 hPa 0,0 l/m 5,1 km/h (1 Bft) O-NO 0,00 h 0,5 UV-I 41 W/m 5,0 C 6,7 C 10,0 km/h (2 Bft)
07.11.2017 15:00 7,2 C 61 % 85 % 1018,7 hPa 0,0 l/m 4,9 km/h (1 Bft) O-NO 0,00 h 0,0 UV-I 11 W/m 4,9 C 6,6 C 10,4 km/h (2 Bft)
07.11.2017 16:00 6,9 C 60 % 86 % 1018,5 hPa 0,0 l/m 5,2 km/h (1 Bft) O-NO 0,00 h 0,0 UV-I 5 W/m 4,8 C 6,4 C 10,1 km/h (2 Bft)
07.11.2017 17:00 6,8 C 59 % 87 % 1018,1 hPa 0,0 l/m 4,4 km/h (1 Bft) NO 0,00 h 0,0 UV-I 0 W/m 4,8 C 6,3 C 9,5 km/h (2 Bft)
07.11.2017 18:00 6,4 C 58 % 88 % 1017,6 hPa 0,0 l/m 2,5 km/h (1 Bft) NO 0,00 h 0,0 UV-I 0 W/m 4,6 C 6,4 C 6,1 km/h (2 Bft)
07.11.2017 19:00 6,6 C 58 % 88 % 1017,2 hPa 0,0 l/m 5,6 km/h (1 Bft) O-NO 0,00 h 0,0 UV-I 0 W/m 4,8 C 5,7 C 11,2 km/h (2 Bft)
07.11.2017 20:00 7,0 C 58 % 88 % 1016,7 hPa 0,0 l/m 3,0 km/h (1 Bft) O-NO 0,00 h 0,0 UV-I 0 W/m 5,1 C 6,9 C 7,1 km/h (2 Bft)
07.11.2017 21:00 7,1 C 59 % 88 % 1016,4 hPa 0,0 l/m 5,2 km/h (1 Bft) NO 0,00 h 0,0 UV-I 0 W/m 5,3 C 6,6 C 10,3 km/h (2 Bft)
07.11.2017 22:00 7,2 C 60 % 88 % 1016,2 hPa 0,0 l/m 4,8 km/h (1 Bft) O-NO 0,00 h 0,0 UV-I 0 W/m 5,3 C 6,8 C 9,0 km/h (2 Bft)
07.11.2017 23:00 7,0 C 60 % 89 % 1016,1 hPa 0,0 l/m 3,0 km/h (1 Bft) O-NO 0,00 h 0,0 UV-I 0 W/m 5,3 C 6,8 C 6,5 km/h (2 Bft)
08.11.2017 00:00 6,9 C 60 % 88 % 1015,7 hPa 0,0 l/m 1,6 km/h (1 Bft) O-NO 0,00 h 0,0 UV-I 0 W/m 5,2 C 6,9 C 4,5 km/h (1 Bft)
08.11.2017 01:00 6,6 C 61 % 89 % 1015,5 hPa 0,0 l/m 2,8 km/h (1 Bft) O-NO 0,00 h 0,0 UV-I 0 W/m 4,9 C 6,4 C 6,9 km/h (2 Bft)
08.11.2017 02:00 6,6 C 62 % 88 % 1015,5 hPa 0,0 l/m 2,7 km/h (1 Bft) O 0,00 h 0,0 UV-I 0 W/m 4,8 C 6,3 C 5,9 km/h (2 Bft)
08.11.2017 03:00 6,1 C 63 % 89 % 1015,2 hPa 0,0 l/m 0,9 km/h (0 Bft) O-NO 0,00 h 0,0 UV-I 0 W/m 4,5 C 6,1 C 2,9 km/h (1 Bft)
08.11.2017 04:00 6,1 C 63 % 91 % 1015,6 hPa 0,0 l/m 0,6 km/h (0 Bft) O-SO 0,00 h 0,0 UV-I 0 W/m 4,7 C 6,1 C 2,2 km/h (1 Bft)
08.11.2017 05:00 6,3 C 63 % 90 % 1015,5 hPa 0,0 l/m 0,9 km/h (0 Bft) O-NO 0,00 h 0,0 UV-I 0 W/m 4,8 C 6,3 C 2,1 km/h (1 Bft)
08.11.2017 06:00 6,2 C 62 % 91 % 1015,9 hPa 0,0 l/m 0,2 km/h (0 Bft) O-NO 0,00 h 0,0 UV-I 0 W/m 4,8 C 6,2 C 0,4 km/h (0 Bft)
08.11.2017 07:00 6,1 C 62 % 91 % 1016,4 hPa 0,0 l/m 0,4 km/h (0 Bft) NO 0,00 h 0,0 UV-I 9 W/m 4,8 C 6,1 C 1,0 km/h (0 Bft)
08.11.2017 08:00 6,4 C 62 % 91 % 1016,7 hPa 0,0 l/m 0,4 km/h (0 Bft) O-NO 0,00 h 0,0 UV-I 43 W/m 5,1 C 6,4 C 1,4 km/h (1 Bft)
08.11.2017 09:00 6,9 C 62 % 90 % 1016,8 hPa 0,0 l/m 0,1 km/h (0 Bft) O-NO 0,00 h 0,5 UV-I 67 W/m 5,4 C 6,9 C 0,5 km/h (0 Bft)
08.11.2017 10:00 7,3 C 61 % 89 % 1017,3 hPa 0,0 l/m 1,1 km/h (0 Bft) O-NO 0,00 h 0,5 UV-I 78 W/m 5,6 C 7,3 C 2,3 km/h (1 Bft)
08.11.2017 11:00 7,5 C 61 % 86 % 1017,3 hPa 0,0 l/m 1,4 km/h (1 Bft) O-NO 0,00 h 0,5 UV-I 55 W/m 5,4 C 7,5 C 3,0 km/h (1 Bft)
08.11.2017 12:00 7,8 C 60 % 85 % 1017,3 hPa 0,0 l/m 1,7 km/h (1 Bft) O-NO 0,00 h 0,6 UV-I 102 W/m 5,5 C 7,7 C 3,5 km/h (1 Bft)
08.11.2017 13:00 7,8 C 59 % 83 % 1017,2 hPa 0,0 l/m 0,1 km/h (0 Bft) O-SO 0,00 h 0,5 UV-I 42 W/m 5,2 C 7,8 C 0,3 km/h (0 Bft)
08.11.2017 14:00 7,5 C 59 % 83 % 1017,4 hPa 0,0 l/m 0,0 km/h (0 Bft) O-SO 0,00 h 0,0 UV-I 19 W/m 4,8 C 7,5 C 0,1 km/h (0 Bft)
08.11.2017 15:00 7,4 C 59 % 85 % 1017,4 hPa 0,0 l/m 0,0 km/h (0 Bft) N 0,00 h 0,0 UV-I 9 W/m 5,2 C 7,4 C 0,0 km/h (0 Bft)
08.11.2017 16:00 7,3 C 59 % 88 % 1017,8 hPa 0,8 l/m 0,1 km/h (0 Bft) N-NW 0,00 h 0,0 UV-I 5 W/m 5,5 C 7,3 C 0,2 km/h (0 Bft)
08.11.2017 17:00 6,9 C 58 % 92 % 1018,0 hPa 1,4 l/m 0,0 km/h (0 Bft) N 0,00 h 0,0 UV-I 0 W/m 5,6 C 6,9 C 0,0 km/h (0 Bft)
08.11.2017 18:00 6,5 C 59 % 93 % 1018,3 hPa 1,0 l/m 0,0 km/h (0 Bft) N 0,00 h 0,0 UV-I 0 W/m 5,4 C 6,5 C 0,0 km/h (0 Bft)
08.11.2017 19:00 6,1 C 60 % 93 % 1018,5 hPa 0,6 l/m 0,0 km/h (0 Bft) N 0,00 h 0,0 UV-I 0 W/m 5,1 C 6,1 C 0,0 km/h (0 Bft)
08.11.2017 20:00 6,0 C 61 % 94 % 1018,6 hPa 0,4 l/m 0,0 km/h (0 Bft) N 0,00 h 0,0 UV-I 0 W/m 5,1 C 6,0 C 0,0 km/h (0 Bft)
08.11.2017 21:00 5,9 C 61 % 95 % 1018,8 hPa 0,4 l/m 0,0 km/h (0 Bft) N 0,00 h 0,0 UV-I 0 W/m 5,1 C 5,9 C 0,0 km/h (0 Bft)
08.11.2017 22:00 5,7 C 61 % 95 % 1018,9 hPa 0,2 l/m 0,0 km/h (0 Bft) N 0,00 h 0,0 UV-I 0 W/m 5,0 C 5,7 C 0,0 km/h (0 Bft)
08.11.2017 23:00 5,7 C 61 % 95 % 1019,2 hPa 0,2 l/m 0,0 km/h (0 Bft) N 0,00 h 0,0 UV-I 0 W/m 5,0 C 5,7 C 0,0 km/h (0 Bft)
09.11.2017 00:00 5,7 C 61 % 96 % 1019,3 hPa 0,0 l/m 0,0 km/h (0 Bft) N 0,00 h 0,0 UV-I 0 W/m 5,1 C 5,7 C 0,0 km/h (0 Bft)
09.11.2017 01:00 5,7 C 62 % 96 % 1019,4 hPa 0,0 l/m 0,0 km/h (0 Bft) N 0,00 h 0,0 UV-I 0 W/m 5,1 C 5,7 C 0,0 km/h (0 Bft)
09.11.2017 02:00 5,7 C 64 % 96 % 1019,3 hPa 0,0 l/m 0,0 km/h (0 Bft) N 0,00 h 0,0 UV-I 0 W/m 5,1 C 5,7 C 0,0 km/h (0 Bft)
09.11.2017 03:00 5,6 C 63 % 96 % 1019,4 hPa 0,0 l/m 0,0 km/h (0 Bft) N 0,00 h 0,0 UV-I 0 W/m 5,0 C 5,6 C 0,0 km/h (0 Bft)
09.11.2017 04:00 5,6 C 63 % 96 % 1019,6 hPa 0,0 l/m 0,0 km/h (0 Bft) N 0,00 h 0,0 UV-I 0 W/m 5,0 C 5,6 C 0,0 km/h (0 Bft)
09.11.2017 05:00 5,5 C 64 % 96 % 1019,8 hPa 0,0 l/m 0,0 km/h (0 Bft) S-SO 0,00 h 0,0 UV-I 0 W/m 4,9 C 5,5 C 0,2 km/h (0 Bft)
09.11.2017 06:00 5,4 C 63 % 97 % 1020,5 hPa 0,0 l/m 0,4 km/h (0 Bft) S 0,00 h 0,0 UV-I 0 W/m 4,9 C 5,4 C 1,0 km/h (0 Bft)
09.11.2017 07:00 5,4 C 62 % 97 % 1021,0 hPa 0,0 l/m 0,2 km/h (0 Bft) SW 0,00 h 0,0 UV-I 5 W/m 5,0 C 5,4 C 0,7 km/h (0 Bft)
09.11.2017 08:00 5,6 C 58 % 97 % 1021,5 hPa 0,0 l/m 0,0 km/h (0 Bft) N 0,00 h 0,0 UV-I 15 W/m 5,1 C 5,6 C 0,0 km/h (0 Bft)
09.11.2017 09:00 5,7 C 59 % 97 % 1022,0 hPa 0,2 l/m 1,4 km/h (1 Bft) S 0,00 h 0,0 UV-I 23 W/m 5,3 C 5,7 C 3,0 km/h (1 Bft)
09.11.2017 10:00 5,8 C 57 % 97 % 1022,5 hPa 0,0 l/m 1,8 km/h (1 Bft) S 0,00 h 0,0 UV-I 21 W/m 5,4 C 5,8 C 4,9 km/h (1 Bft)
09.11.2017 11:00 6,0 C 59 % 97 % 1022,5 hPa 0,0 l/m 0,9 km/h (0 Bft) S-SW 0,00 h 0,0 UV-I 31 W/m 5,5 C 6,0 C 2,7 km/h (1 Bft)
09.11.2017 12:00 6,0 C 59 % 97 % 1022,4 hPa 0,0 l/m 0,9 km/h (0 Bft) SW 0,00 h 0,0 UV-I 22 W/m 5,5 C 6,0 C 2,6 km/h (1 Bft)
09.11.2017 13:00 6,1 C 59 % 96 % 1022,2 hPa 0,0 l/m 0,4 km/h (0 Bft) SW 0,00 h 0,0 UV-I 30 W/m 5,5 C 6,1 C 0,9 km/h (0 Bft)
09.11.2017 14:00 6,3 C 59 % 96 % 1022,1 hPa 0,0 l/m 0,5 km/h (0 Bft) W-SW 0,00 h 0,0 UV-I 24 W/m 5,7 C 6,3 C 1,6 km/h (1 Bft)
09.11.2017 15:00 6,4 C 59 % 95 % 1022,3 hPa 0,0 l/m 1,5 km/h (1 Bft) W-SW 0,00 h 0,0 UV-I 12 W/m 5,7 C 6,4 C 3,9 km/h (1 Bft)
09.11.2017 16:00 6,3 C 59 % 95 % 1022,6 hPa 0,0 l/m 1,3 km/h (1 Bft) W-SW 0,00 h 0,0 UV-I 5 W/m 5,6 C 6,3 C 3,7 km/h (1 Bft)
09.11.2017 17:00 6,3 C 61 % 95 % 1023,1 hPa 0,0 l/m 1,3 km/h (1 Bft) W-SW 0,00 h 0,0 UV-I 0 W/m 5,5 C 6,3 C 3,5 km/h (1 Bft)
09.11.2017 18:00 6,1 C 61 % 95 % 1023,3 hPa 0,0 l/m 0,3 km/h (0 Bft) SW 0,00 h 0,0 UV-I 0 W/m 5,4 C 6,1 C 1,1 km/h (0 Bft)
09.11.2017 19:00 6,0 C 65 % 95 % 1023,4 hPa 0,0 l/m 0,3 km/h (0 Bft) W-SW 0,00 h 0,0 UV-I 0 W/m 5,3 C 6,0 C 1,3 km/h (1 Bft)
09.11.2017 20:00 5,9 C 62 % 95 % 1023,2 hPa 0,0 l/m 0,9 km/h (0 Bft) SW 0,00 h 0,0 UV-I 0 W/m 5,2 C 5,9 C 2,7 km/h (1 Bft)
09.11.2017 21:00 5,9 C 60 % 96 % 1023,2 hPa 0,0 l/m 1,3 km/h (1 Bft) S-SW 0,00 h 0,0 UV-I 0 W/m 5,3 C 5,9 C 4,1 km/h (1 Bft)
09.11.2017 22:00 5,9 C 60 % 96 % 1023,3 hPa 0,0 l/m 3,3 km/h (1 Bft) SW 0,00 h 0,0 UV-I 0 W/m 5,3 C 5,8 C 7,1 km/h (2 Bft)
09.11.2017 23:00 5,8 C 60 % 95 % 1023,0 hPa 0,0 l/m 1,4 km/h (1 Bft) SW 0,00 h 0,0 UV-I 0 W/m 5,0 C 5,8 C 4,1 km/h (1 Bft)
10.11.2017 00:00 5,7 C 60 % 95 % 1022,8 hPa 0,0 l/m 1,4 km/h (1 Bft) W-SW 0,00 h 0,0 UV-I 0 W/m 5,0 C 5,7 C 4,0 km/h (1 Bft)
10.11.2017 01:00 5,7 C 61 % 95 % 1022,5 hPa 0,0 l/m 2,3 km/h (1 Bft) SW 0,00 h 0,0 UV-I 0 W/m 5,0 C 5,7 C 6,0 km/h (2 Bft)
10.11.2017 02:00 5,7 C 62 % 95 % 1021,8 hPa 0,0 l/m 2,7 km/h (1 Bft) SW 0,00 h 0,0 UV-I 0 W/m 4,9 C 5,7 C 6,6 km/h (2 Bft)
10.11.2017 03:00 5,6 C 62 % 95 % 1021,2 hPa 0,0 l/m 2,6 km/h (1 Bft) SW 0,00 h 0,0 UV-I 0 W/m 4,9 C 5,6 C 6,2 km/h (2 Bft)
10.11.2017 04:00 5,5 C 62 % 95 % 1021,0 hPa 0,0 l/m 3,4 km/h (1 Bft) SW 0,00 h 0,0 UV-I 0 W/m 4,8 C 5,5 C 7,4 km/h (2 Bft)
10.11.2017 05:00 5,4 C 62 % 94 % 1020,2 hPa 0,0 l/m 3,0 km/h (1 Bft) S-SW 0,00 h 0,0 UV-I 0 W/m 4,5 C 5,4 C 6,7 km/h (2 Bft)
10.11.2017 06:00 5,2 C 60 % 92 % 1020,0 hPa 0,0 l/m 5,6 km/h (1 Bft) SW 0,00 h 0,0 UV-I 0 W/m 4,1 C 4,4 C 11,6 km/h (2 Bft)
10.11.2017 07:00 4,9 C 59 % 90 % 1020,0 hPa 0,0 l/m 7,9 km/h (2 Bft) W-SW 0,00 h 0,0 UV-I 0 W/m 3,3 C 3,2 C 14,9 km/h (3 Bft)
10.11.2017 08:00 4,6 C 53 % 90 % 1019,7 hPa 0,0 l/m 6,8 km/h (2 Bft) SW 0,00 h 0,0 UV-I 11 W/m 3,2 C 3,4 C 13,3 km/h (3 Bft)
10.11.2017 09:00 4,4 C 53 % 90 % 1019,7 hPa 0,0 l/m 6,8 km/h (2 Bft) SW 0,00 h 0,0 UV-I 19 W/m 3,0 C 3,3 C 13,2 km/h (3 Bft)
10.11.2017 10:00 4,3 C 55 % 91 % 1019,4 hPa 0,2 l/m 7,6 km/h (2 Bft) SW 0,00 h 0,0 UV-I 21 W/m 2,9 C 2,5 C 14,0 km/h (3 Bft)
10.11.2017 11:00 4,1 C 53 % 93 % 1018,5 hPa 0,4 l/m 5,5 km/h (1 Bft) S 0,00 h 0,0 UV-I 30 W/m 3,1 C 3,4 C 11,2 km/h (2 Bft)
10.11.2017 12:00 4,1 C 55 % 94 % 1017,4 hPa 0,0 l/m 6,0 km/h (2 Bft) S 0,00 h 0,0 UV-I 36 W/m 3,2 C 3,3 C 10,9 km/h (2 Bft)
10.11.2017 13:00 4,3 C 54 % 94 % 1016,0 hPa 0,4 l/m 8,0 km/h (2 Bft) S 0,00 h 0,0 UV-I 34 W/m 3,4 C 2,6 C 13,8 km/h (3 Bft)
10.11.2017 14:00 4,5 C 53 % 94 % 1015,1 hPa 0,0 l/m 8,7 km/h (2 Bft) SW 0,00 h 0,0 UV-I 41 W/m 3,7 C 2,6 C 15,2 km/h (3 Bft)
10.11.2017 15:00 4,6 C 52 % 95 % 1014,5 hPa 0,4 l/m 8,4 km/h (2 Bft) S-SW 0,00 h 0,0 UV-I 12 W/m 3,8 C 2,7 C 14,2 km/h (3 Bft)
10.11.2017 16:00 4,5 C 56 % 95 % 1013,9 hPa 0,6 l/m 7,8 km/h (2 Bft) S-SW 0,00 h 0,0 UV-I 4 W/m 3,8 C 3,0 C 14,4 km/h (3 Bft)
10.11.2017 17:00 4,5 C 55 % 95 % 1013,6 hPa 0,4 l/m 6,9 km/h (2 Bft) SW 0,00 h 0,0 UV-I 0 W/m 3,7 C 3,4 C 13,0 km/h (3 Bft)
10.11.2017 18:00 4,5 C 54 % 95 % 1013,3 hPa 0,2 l/m 6,7 km/h (2 Bft) SW 0,00 h 0,0 UV-I 0 W/m 3,8 C 3,6 C 13,2 km/h (3 Bft)
10.11.2017 19:00 4,8 C 55 % 96 % 1013,1 hPa 0,2 l/m 14,2 km/h (3 Bft) SW 0,00 h 0,0 UV-I 0 W/m 4,2 C -0,5 C 22,0 km/h (4 Bft)
10.11.2017 20:00 5,1 C 54 % 95 % 1013,0 hPa 0,2 l/m 14,3 km/h (3 Bft) W-SW 0,00 h 0,0 UV-I 0 W/m 4,4 C -0,3 C 22,4 km/h (4 Bft)
10.11.2017 21:00 5,3 C 55 % 94 % 1013,1 hPa 0,2 l/m 11,8 km/h (2 Bft) W-SW 0,00 h 0,0 UV-I 0 W/m 4,5 C 1,4 C 18,7 km/h (3 Bft)
10.11.2017 22:00 5,0 C 55 % 95 % 1013,3 hPa 0,2 l/m 10,9 km/h (2 Bft) W 0,00 h 0,0 UV-I 0 W/m 4,3 C 1,7 C 16,6 km/h (3 Bft)
10.11.2017 23:00 4,8 C 56 % 94 % 1013,4 hPa 0,0 l/m 5,3 km/h (1 Bft) W 0,00 h 0,0 UV-I 0 W/m 3,9 C 4,4 C 9,1 km/h (2 Bft)
11.11.2017 00:00 3,8 C 57 % 92 % 1014,0 hPa 0,2 l/m 10,9 km/h (2 Bft) W-NW 0,00 h 0,0 UV-I 0 W/m 2,7 C 0,3 C 17,7 km/h (3 Bft)
11.11.2017 01:00 2,9 C 57 % 93 % 1014,3 hPa 0,0 l/m 11,0 km/h (2 Bft) W 0,00 h 0,0 UV-I 0 W/m 1,8 C -0,9 C 16,2 km/h (3 Bft)
11.11.2017 02:00 2,8 C 59 % 93 % 1014,5 hPa 0,0 l/m 12,4 km/h (3 Bft) W-SW 0,00 h 0,0 UV-I 0 W/m 1,8 C -1,9 C 18,3 km/h (3 Bft)
11.11.2017 03:00 2,8 C 60 % 93 % 1014,4 hPa 0,0 l/m 11,2 km/h (2 Bft) W-SW 0,00 h 0,0 UV-I 0 W/m 1,8 C -1,0 C 16,7 km/h (3 Bft)
11.11.2017 04:00 2,7 C 60 % 92 % 1014,3 hPa 0,0 l/m 11,4 km/h (2 Bft) W-SW 0,00 h 0,0 UV-I 0 W/m 1,6 C -1,2 C 17,3 km/h (3 Bft)
11.11.2017 05:00 2,8 C 61 % 92 % 1014,1 hPa 0,0 l/m 8,4 km/h (2 Bft) W-SW 0,00 h 0,0 UV-I 0 W/m 1,7 C 0,7 C 13,9 km/h (3 Bft)
11.11.2017 06:00 3,0 C 60 % 92 % 1014,0 hPa 0,0 l/m 11,0 km/h (2 Bft) SW 0,00 h 0,0 UV-I 0 W/m 1,9 C -0,7 C 17,9 km/h (3 Bft)
11.11.2017 07:00 2,9 C 58 % 90 % 1014,1 hPa 0,0 l/m 10,5 km/h (2 Bft) SW 0,00 h 0,0 UV-I 5 W/m 1,4 C -0,5 C 15,9 km/h (3 Bft)
11.11.2017 08:00 3,1 C 58 % 91 % 1014,1 hPa 0,0 l/m 6,4 km/h (2 Bft) SW 0,00 h 0,0 UV-I 18 W/m 1,8 C 2,3 C 9,9 km/h (2 Bft)
11.11.2017 09:00 3,1 C 58 % 93 % 1013,9 hPa 0,0 l/m 6,3 km/h (2 Bft) SW 0,00 h 0,5 UV-I 19 W/m 2,1 C 2,3 C 9,1 km/h (2 Bft)
11.11.2017 10:00 3,6 C 59 % 93 % 1013,2 hPa 0,2 l/m 7,0 km/h (2 Bft) SW 0,00 h 0,6 UV-I 70 W/m 2,5 C 2,4 C 12,7 km/h (3 Bft)
11.11.2017 11:00 4,3 C 59 % 91 % 1012,3 hPa 0,0 l/m 8,1 km/h (2 Bft) SW 0,18 h 0,6 UV-I 91 W/m 2,9 C 2,7 C 14,0 km/h (3 Bft)
11.11.2017 12:00 4,3 C 56 % 91 % 1011,6 hPa 0,2 l/m 7,5 km/h (2 Bft) SW 0,00 h 0,5 UV-I 55 W/m 3,0 C 2,8 C 13,5 km/h (3 Bft)
11.11.2017 13:00 3,9 C 54 % 93 % 1010,5 hPa 0,4 l/m 6,5 km/h (2 Bft) SW 0,00 h 0,5 UV-I 43 W/m 2,9 C 3,0 C 11,3 km/h (2 Bft)
11.11.2017 14:00 3,9 C 52 % 95 % 1009,1 hPa 0,6 l/m 6,3 km/h (2 Bft) S 0,00 h 0,0 UV-I 17 W/m 3,1 C 3,0 C 11,7 km/h (2 Bft)
11.11.2017 15:00 4,0 C 52 % 95 % 1008,1 hPa 0,8 l/m 4,7 km/h (1 Bft) S-SW 0,00 h 0,0 UV-I 14 W/m 3,3 C 3,7 C 9,3 km/h (2 Bft)
11.11.2017 16:00 4,1 C 53 % 96 % 1007,3 hPa 0,8 l/m 4,2 km/h (1 Bft) S-SW 0,00 h 0,0 UV-I 5 W/m 3,5 C 3,9 C 8,6 km/h (2 Bft)
11.11.2017 17:00 4,2 C 56 % 96 % 1006,6 hPa 0,6 l/m 3,8 km/h (1 Bft) S-SW 0,00 h 0,0 UV-I 0 W/m 3,6 C 4,2 C 7,3 km/h (2 Bft)
11.11.2017 18:00 4,3 C 59 % 96 % 1006,0 hPa 0,2 l/m 1,6 km/h (1 Bft) S 0,00 h 0,0 UV-I 0 W/m 3,8 C 4,4 C 3,7 km/h (1 Bft)
11.11.2017 19:00 4,5 C 58 % 96 % 1006,1 hPa 0,4 l/m 1,2 km/h (1 Bft) SW 0,00 h 0,0 UV-I 0 W/m 4,0 C 4,5 C 3,2 km/h (1 Bft)
11.11.2017 20:00 4,7 C 59 % 97 % 1006,2 hPa 0,2 l/m 0,0 km/h (0 Bft) N 0,00 h 0,0 UV-I 0 W/m 4,2 C 4,7 C 0,0 km/h (0 Bft)
11.11.2017 21:00 4,6 C 58 % 97 % 1006,4 hPa 0,0 l/m 0,0 km/h (0 Bft) N 0,00 h 0,0 UV-I 0 W/m 4,2 C 4,6 C 0,0 km/h (0 Bft)
11.11.2017 22:00 4,7 C 59 % 97 % 1007,1 hPa 0,0 l/m 3,3 km/h (1 Bft) NW 0,00 h 0,0 UV-I 0 W/m 4,3 C 4,6 C 7,1 km/h (2 Bft)
11.11.2017 23:00 4,4 C 59 % 97 % 1007,5 hPa 0,0 l/m 6,0 km/h (2 Bft) NW 0,00 h 0,0 UV-I 0 W/m 3,9 C 4,0 C 9,6 km/h (2 Bft)
12.11.2017 00:00 3,8 C 60 % 96 % 1007,9 hPa 0,0 l/m 3,6 km/h (1 Bft) W-NW 0,00 h 0,0 UV-I 0 W/m 3,2 C 3,6 C 7,4 km/h (2 Bft)
12.11.2017 01:00 3,3 C 62 % 95 % 1007,9 hPa 0,0 l/m 1,4 km/h (1 Bft) NW 0,00 h 0,0 UV-I 0 W/m 2,6 C 3,3 C 3,1 km/h (1 Bft)
12.11.2017 02:00 2,5 C 63 % 95 % 1008,2 hPa 0,0 l/m 0,2 km/h (0 Bft) NW 0,00 h 0,0 UV-I 0 W/m 1,7 C 2,5 C 0,6 km/h (0 Bft)
12.11.2017 03:00 2,1 C 63 % 95 % 1008,2 hPa 0,2 l/m 1,1 km/h (0 Bft) NW 0,00 h 0,0 UV-I 0 W/m 1,4 C 2,1 C 2,1 km/h (1 Bft)
12.11.2017 04:00 1,7 C 64 % 95 % 1008,4 hPa 0,0 l/m 0,0 km/h (0 Bft) NW 0,00 h 0,0 UV-I 0 W/m 1,0 C 1,7 C 0,1 km/h (0 Bft)
12.11.2017 05:00 1,1 C 65 % 95 % 1008,2 hPa 0,0 l/m 0,0 km/h (0 Bft) N 0,00 h 0,0 UV-I 0 W/m 0,4 C 1,1 C 0,1 km/h (0 Bft)
12.11.2017 06:00 0,6 C 64 % 95 % 1007,8 hPa 0,0 l/m 0,8 km/h (0 Bft) NW 0,00 h 0,0 UV-I 0 W/m -0,0 C 0,6 C 1,6 km/h (1 Bft)
12.11.2017 07:00 0,7 C 63 % 96 % 1007,6 hPa 0,0 l/m 0,6 km/h (0 Bft) NW 0,00 h 0,0 UV-I 13 W/m 0,2 C 0,7 C 1,3 km/h (1 Bft)
12.11.2017 08:00 1,2 C 61 % 97 % 1006,9 hPa 0,0 l/m 0,2 km/h (0 Bft) NW 0,00 h 0,0 UV-I 31 W/m 0,8 C 1,2 C 0,6 km/h (0 Bft)
12.11.2017 09:00 2,0 C 61 % 97 % 1006,0 hPa 0,0 l/m 1,2 km/h (1 Bft) S-SO 0,02 h 0,6 UV-I 82 W/m 1,6 C 2,0 C 2,7 km/h (1 Bft)
12.11.2017 10:00 2,9 C 59 % 97 % 1004,5 hPa 0,0 l/m 1,3 km/h (1 Bft) SO 0,00 h 0,6 UV-I 109 W/m 2,5 C 2,9 C 3,1 km/h (1 Bft)
12.11.2017 11:00 3,4 C 58 % 95 % 1003,0 hPa 0,0 l/m 2,3 km/h (1 Bft) S-SO 0,00 h 0,5 UV-I 46 W/m 2,6 C 3,4 C 4,1 km/h (1 Bft)
12.11.2017 12:00 3,1 C 56 % 91 % 1001,6 hPa 1,0 l/m 2,6 km/h (1 Bft) SO 0,00 h 0,0 UV-I 26 W/m 1,9 C 2,9 C 5,4 km/h (1 Bft)
12.11.2017 13:00 1,9 C 56 % 93 % 1000,2 hPa 1,0 l/m 0,4 km/h (0 Bft) NO 0,00 h 0,0 UV-I 15 W/m 0,8 C 1,9 C 1,8 km/h (1 Bft)
12.11.2017 14:00 1,0 C 55 % 94 % 998,3 hPa 1,0 l/m 0,6 km/h (0 Bft) O-NO 0,00 h 0,0 UV-I 12 W/m 0,2 C 1,0 C 1,8 km/h (1 Bft)
12.11.2017 15:00 1,0 C 56 % 95 % 996,7 hPa 1,6 l/m 0,3 km/h (0 Bft) N-NO 0,00 h 0,0 UV-I 13 W/m 0,3 C 1,0 C 1,1 km/h (0 Bft)
12.11.2017 16:00 0,8 C 58 % 95 % 995,7 hPa 2,2 l/m 1,4 km/h (1 Bft) NO 0,00 h 0,0 UV-I 0 W/m 0,2 C 0,8 C 3,7 km/h (1 Bft)
12.11.2017 17:00 1,0 C 59 % 96 % 994,6 hPa 0,2 l/m 4,3 km/h (1 Bft) N 0,00 h 0,0 UV-I 0 W/m 0,4 C 0,7 C 8,4 km/h (2 Bft)
12.11.2017 18:00 1,0 C 59 % 96 % 995,6 hPa 0,6 l/m 4,7 km/h (1 Bft) N 0,00 h 0,0 UV-I 0 W/m 0,4 C -0,1 C 7,6 km/h (2 Bft)
12.11.2017 19:00 0,8 C 59 % 96 % 997,1 hPa 0,6 l/m 7,1 km/h (2 Bft) NW 0,00 h 0,0 UV-I 0 W/m 0,2 C -0,6 C 11,2 km/h (2 Bft)
12.11.2017 20:00 0,8 C 58 % 96 % 999,4 hPa 0,8 l/m 6,8 km/h (2 Bft) W-NW 0,00 h 0,0 UV-I 0 W/m 0,3 C -0,0 C 10,3 km/h (2 Bft)
12.11.2017 21:00 0,8 C 59 % 97 % 1001,2 hPa 0,2 l/m 7,5 km/h (2 Bft) W-NW 0,00 h 0,0 UV-I 0 W/m 0,3 C -0,7 C 11,3 km/h (2 Bft)
12.11.2017 22:00 0,8 C 59 % 96 % 1002,6 hPa 0,0 l/m 4,2 km/h (1 Bft) W 0,00 h 0,0 UV-I 0 W/m 0,2 C 0,8 C 7,3 km/h (2 Bft)
12.11.2017 23:00 0,7 C 60 % 97 % 1003,8 hPa 0,0 l/m 2,8 km/h (1 Bft) W-SW 0,00 h 0,0 UV-I 0 W/m 0,3 C 0,7 C 5,4 km/h (1 Bft)
Min-Datum _ 12.11.17 10.11.17 08.11.17 12.11.17 - 06.11.17 - - - - 12.11.17 11.11.17 06.11.17
_ Min-Zeit 06:10 08:42 14:02 17:18 - 00:01 - - - - 06:10 06:57 00:02
Minimum _ 0,6 C 43 % 82 % 993,3 hPa - 0,0 km/h (0 Bft) - - - - -0,1 C -6,9 C 0,0 km/h (0 Bft)
Max-Datum _ 08.11.17 09.11.17 09.11.17 06.11.17 12.11.17 10.11.17 - 11.11.17 11.11.17 11.11.17 08.11.17 08.11.17 10.11.17
_ Max-Zeit 12:50 19:17 05:01 21:36 16:04 19:09 - 11:00 11:16 11:17 11:08 12:51 20:26
Maximum _ 8,2 C 70 % 97 % 1024,2 hPa 2,2 l/m 22,5 km/h
SW (4 Bft)
- 0,02 h 1,0 UV-I 281 W/m 5,8 C 8,2 C 35,4 km/h
W-SW (5 Bft)
Durchschnitt _ 4,9 C 60 % 93 % 1015,7 hPa #23,6 l/m 3,7 km/h (1 Bft) SW #12 min. 0,5 UV-I 33 W/m 3,8 C 4,2 C 6,8 km/h (2 Bft)